Springfield, IL

9:25 PM CST on January 21, 2018 (GMT -0600)
Capital

Weather History for KSPI - May, 2014

Change the Weather History Date:

Thursday, May 29, 2014

  Actual Average Record
Temperature  
Mean Temperature 75 °F 68 °F  
Max Temperature 87 °F 79 °F 95 °F (1934)
Min Temperature 63 °F 57 °F 39 °F (1965)
Degree Days  
Heating Degree Days 0 2  
Month to date heating degree days 115 122  
Since 1 July heating degree days 6206 5467  
Cooling Degree Days 10 4  
Month to date cooling degree days 142 74  
Year to date cooling degree days 152 94  
Growing Degree Days 23 (Base 50)    
Moisture  
Dew Point 65 °F    
Average Humidity 74    
Maximum Humidity 93    
Minimum Humidity 55    
Precipitation  
Precipitation 0.01 in 0.14 in 3.26 in (1889)
Month to date precipitation 2.76 3.95  
Year to date precipitation 14.29 13.72  
Snow  
Snow 0.00 in 0.00 in 0.00 in ()
Month to date snowfall 0.0 0.0  
Since 1 July snowfall 45.7 20.9  
Snow Depth 0.00 in    
Sea Level Pressure  
Sea Level Pressure 30.00 in    
Wind  
Wind Speed 5 mph (ENE)    
Max Wind Speed 20 mph    
Max Gust Speed 25 mph    
Visibility 8 miles    
Events Rain , Thunderstorm    
T = Trace of Precipitation, MM = Missing Value Source: NWS Daily Summary

Daily Weather History Graph

Daily Weather History Graph

Search for Another Location

Airport or City:

Trip Planner

Search our weather history database for the weather conditions in past years. The results will help you decide how hot, cold, wet, or windy it might be!

Date:

Astronomy

May. 29, 2014 Rise Set
Actual Time 5:33 AM CDT 8:18 PM CDT
Civil Twilight 5:02 AM CDT 8:50 PM CDT
Nautical Twilight 4:22 AM CDT 9:30 PM CDT
Astronomical Twilight 3:36 AM CDT 10:16 PM CDT
Moon 6:27 AM CDT (5/29) 9:09 PM CDT (5/29)
Length of Visible Light 15h 48m
Length of Day
14h 45m
New Moon, 1% of the Moon is Illuminated
May 29
New Moon
Jun 5
First Quarter
Jun 12
Full
Jun 19
Last Quarter
Jun 27
New

Hourly Weather History & Observations

Time (CDT) Temp. Heat Index Dew Point Humidity Pressure Visibility Wind Dir Wind Speed Gust Speed Precip Events Conditions
12:52 AM 69.1 °F - 64.0 °F 84% 29.96 in 10.0 mi ENE 5.8 mph - N/A   Clear
1:52 AM 68.0 °F - 64.0 °F 87% 29.94 in 10.0 mi NE 5.8 mph - N/A   Clear
2:52 AM 69.8 °F - 64.4 °F 83% 29.96 in 10.0 mi ENE 6.9 mph - N/A   Clear
3:52 AM 66.0 °F - 62.1 °F 87% 29.96 in 6.0 mi NE 5.8 mph - N/A   Clear
4:52 AM 64.0 °F - 60.1 °F 87% 29.97 in 5.0 mi NE 5.8 mph - N/A   Partly Cloudy
5:47 AM 62.6 °F - 60.8 °F 94% 30.00 in 2.5 mi NE 4.6 mph - N/A   Clear
5:52 AM 63.0 °F - 60.1 °F 90% 29.99 in 2.5 mi ENE 4.6 mph - N/A   Clear
6:28 AM 64.0 °F - 60.1 °F 87% 30.01 in 3.0 mi NE 4.6 mph - N/A   Clear
6:52 AM 64.9 °F - 60.1 °F 84% 30.00 in 4.0 mi ENE 6.9 mph - N/A   Haze
7:52 AM 68.0 °F - 62.1 °F 81% 30.01 in 5.0 mi East 5.8 mph - N/A   Haze
8:52 AM 73.0 °F - 64.0 °F 73% 30.03 in 7.0 mi East 4.6 mph - N/A   Clear
9:52 AM 78.1 °F - 66.9 °F 68% 30.02 in 9.0 mi Calm Calm - N/A   Clear
10:52 AM 81.0 °F 83.3 °F 66.9 °F 62% 30.03 in 10.0 mi Calm Calm - N/A   Clear
11:52 AM 82.0 °F 84.1 °F 66.0 °F 58% 30.03 in 10.0 mi Calm Calm - N/A   Mostly Cloudy
12:52 PM 84.0 °F 86.5 °F 66.9 °F 56% 30.01 in 10.0 mi South 4.6 mph - N/A   Mostly Cloudy
1:05 PM 84.9 °F 87.6 °F 66.9 °F 55% 30.02 in 10.0 mi South 4.6 mph - N/A Thunderstorm Mostly Cloudy
1:20 PM 84.9 °F 87.1 °F 66.0 °F 53% 30.02 in 10.0 mi SSE 4.6 mph - N/A   Partly Cloudy
1:52 PM 82.9 °F 85.4 °F 66.9 °F 58% 29.99 in 10.0 mi North 11.5 mph - N/A   Partly Cloudy
2:06 PM 82.0 °F 84.5 °F 66.9 °F 60% 30.01 in 10.0 mi North 8.1 mph - N/A Thunderstorm Mostly Cloudy
2:21 PM 84.0 °F 86.5 °F 66.9 °F 56% 30.00 in 10.0 mi NNE 6.9 mph - N/A   Mostly Cloudy
2:52 PM 82.0 °F 84.9 °F 68.0 °F 62% 29.99 in 10.0 mi ENE 11.5 mph - N/A   Scattered Clouds
3:43 PM 82.9 °F 85.0 °F 66.0 °F 56% 30.00 in 10.0 mi ENE 10.4 mph - N/A Thunderstorm Mostly Cloudy
3:52 PM 81.0 °F 83.3 °F 66.9 °F 62% 29.99 in 10.0 mi ENE 12.7 mph - N/A Thunderstorm Mostly Cloudy
3:59 PM 80.1 °F 82.1 °F 66.0 °F 62% 30.01 in 10.0 mi East 15.0 mph - N/A Thunderstorm Thunderstorm
4:12 PM 77.0 °F - 66.0 °F 69% 30.02 in 10.0 mi SSE 15.0 mph 25.3 mph N/A Thunderstorm Thunderstorm
4:34 PM 73.0 °F - 66.9 °F 81% 30.01 in 10.0 mi ESE 11.5 mph - 0.01 in Rain , Thunderstorm Light Rain
4:52 PM 73.0 °F - 66.9 °F 81% 30.00 in 10.0 mi ENE 4.6 mph - 0.01 in Rain Light Rain
5:52 PM 73.9 °F - 68.0 °F 82% 29.99 in 10.0 mi Calm Calm - 0.00 in Rain Light Rain
6:52 PM 75.2 °F - 68.0 °F 78% 30.01 in 10.0 mi ENE 3.5 mph - N/A   Clear
7:52 PM 73.9 °F - 69.1 °F 85% 30.00 in 10.0 mi NNE 4.6 mph - N/A   Clear
8:52 PM 73.0 °F - 66.9 °F 81% 30.01 in 10.0 mi ESE 5.8 mph - N/A   Clear
9:52 PM 71.1 °F - 66.9 °F 87% 30.03 in 10.0 mi Calm Calm - N/A   Clear
10:52 PM 70.0 °F - 66.0 °F 87% 30.04 in 10.0 mi ENE 4.6 mph - N/A   Clear
11:52 PM 69.1 °F - 64.9 °F 87% 30.04 in 6.0 mi ENE 5.8 mph - N/A   Clear